Weather History for Ironwood, MI

Change the Weather History Date:

Friday, November 8, 2013

  Actual Average Record
Temperature  
Mean Temperature 27 °F -  
Max Temperature 35 °F 40 °F 73 °F (1999)
Min Temperature 19 °F 26 °F 3 °F (2003)
Degree Days  
Heating Degree Days 38    
Moisture  
Dew Point 20 °F    
Average Humidity 77    
Maximum Humidity 86    
Minimum Humidity 64    
Precipitation  
Precipitation 0.14 in - - ()
Sea Level Pressure  
Sea Level Pressure 30.00 in    
Wind  
Wind Speed 5 mph (SSW)    
Max Wind Speed 16 mph    
Max Gust Speed 30 mph    
Visibility 9 miles    
Events      
Averages and records for this station are not official NWS values.
T = Trace of Precipitation, MM = Missing Value Source: NWS Daily Summary

Daily Weather History Graph

Daily Weather History Graph

Search for Another Location

Airport:

Trip Planner

Search our weather history database for the weather conditions in past years. The results will help you decide how hot, cold, wet, or windy it might be!

Date:

Astronomy

Nov. 08, 2013 Rise Set
Actual Time 6:52 AM CST 4:35 PM CST
Civil Twilight 6:20 AM CST 5:07 PM CST
Nautical Twilight 5:44 AM CST 5:43 PM CST
Astronomical Twilight 5:09 AM CST 6:18 PM CST
Moon 11:48 AM CST (11/8) 9:57 PM CST (11/8)
Length of Visible Light 10h 46m
Length of Day
9h 42m
Waxing Crescent, 33% of the Moon is Illuminated
Nov 8
Waxing Crescent
Nov 9
First Quarter
Nov 17
Full
Nov 25
Last Quarter
Dec 2
New

Hourly Weather History & Observations

Time (CST) Temp. Windchill Dew Point Humidity Pressure Visibility Wind Dir Wind Speed Gust Speed Precip Events Conditions
12:15 AM 28.4 °F 21.2 °F 17.6 °F 64% 30.10 in 10.0 mi SW 6.9 mph - N/A   Mostly Cloudy
12:35 AM 26.6 °F 20.0 °F 17.6 °F 69% 30.10 in 10.0 mi WSW 5.8 mph - N/A   Scattered Clouds
12:55 AM 24.8 °F 19.1 °F 15.8 °F 69% 30.10 in 10.0 mi SW 4.6 mph - N/A   Clear
1:15 AM 24.8 °F 19.1 °F 17.6 °F 74% 30.10 in 10.0 mi SW 4.6 mph - N/A   Clear
1:35 AM 26.6 °F 20.0 °F 15.8 °F 64% 30.10 in 10.0 mi SSW 5.8 mph - N/A   Clear
1:55 AM 24.8 °F 20.5 °F 15.8 °F 69% 30.11 in 10.0 mi SW 3.5 mph - N/A   Clear
2:15 AM 24.8 °F - 15.8 °F 69% 30.10 in 10.0 mi Calm Calm - N/A   Clear
2:35 AM 23.0 °F 15.8 °F 17.6 °F 80% 30.11 in 10.0 mi SW 5.8 mph - N/A   Clear
2:55 AM 24.8 °F 19.1 °F 17.6 °F 74% 30.11 in 10.0 mi WSW 4.6 mph - N/A   Clear
3:15 AM 24.8 °F 19.1 °F 17.6 °F 74% 30.11 in 10.0 mi WSW 4.6 mph - N/A   Clear
3:35 AM 24.8 °F 20.5 °F 15.8 °F 69% 30.11 in 10.0 mi SW 3.5 mph - N/A   Clear
3:55 AM 24.8 °F - 15.8 °F 69% 30.12 in 10.0 mi Calm Calm - N/A   Clear
4:15 AM 21.2 °F - 15.8 °F 80% 30.12 in 10.0 mi Calm Calm - N/A   Clear
4:35 AM 21.2 °F - 14.0 °F 74% 30.12 in 10.0 mi Calm Calm - N/A   Clear
4:55 AM 21.2 °F - 15.8 °F 80% 30.12 in 10.0 mi Calm Calm - N/A   Clear
5:15 AM 19.4 °F - 15.8 °F 86% 30.12 in 10.0 mi Calm Calm - N/A   Clear
5:35 AM 19.4 °F - 15.8 °F 86% 30.12 in 10.0 mi Calm Calm - N/A   Clear
5:55 AM 19.4 °F - 15.8 °F 86% 30.12 in 10.0 mi Calm Calm - N/A   Clear
6:15 AM 21.2 °F - 15.8 °F 80% 30.11 in 10.0 mi Calm Calm - N/A   Clear
6:35 AM 21.2 °F - 15.8 °F 80% 30.12 in 10.0 mi Calm Calm - N/A   Clear
6:55 AM 21.2 °F - 15.8 °F 80% 30.11 in 10.0 mi Calm Calm - N/A   Clear
7:15 AM 21.2 °F - 17.6 °F 86% 30.11 in 10.0 mi Calm Calm - N/A   Clear
7:35 AM 21.2 °F 16.4 °F 17.6 °F 86% 30.12 in 10.0 mi SSW 3.5 mph - N/A   Clear
7:55 AM 23.0 °F - 17.6 °F 80% 30.12 in 10.0 mi Calm Calm - N/A   Clear
8:15 AM 23.0 °F 18.4 °F 17.6 °F 80% 30.12 in 10.0 mi SSW 3.5 mph - N/A   Clear
8:35 AM 24.8 °F 17.9 °F 17.6 °F 74% 30.11 in 10.0 mi South 5.8 mph - N/A   Clear
8:55 AM 26.6 °F 20.0 °F 19.4 °F 74% 30.12 in 5.0 mi SSW 5.8 mph - 0.05 in   Clear
9:15 PM 35.6 °F 26.2 °F 26.6 °F 70% 29.73 in 8.0 mi SSE 15.0 mph 29.9 mph N/A   Overcast
9:35 PM 35.6 °F 26.2 °F 28.4 °F 75% 29.71 in 7.0 mi SSE 15.0 mph 25.3 mph N/A   Overcast
9:55 PM 35.6 °F 26.2 °F 28.4 °F 75% 29.70 in 7.0 mi SSE 15.0 mph 23.0 mph N/A   Overcast
10:15 PM 33.8 °F 24.3 °F 28.4 °F 81% 29.69 in 5.0 mi SSE 13.8 mph 20.7 mph N/A   Overcast
10:35 PM 35.6 °F 27.1 °F 30.2 °F 81% 29.67 in 8.0 mi SSE 12.7 mph 20.7 mph N/A   Overcast
10:55 PM 35.6 °F 25.9 °F 30.2 °F 81% 29.65 in 10.0 mi SSE 16.1 mph 21.9 mph 0.04 in   Overcast
11:15 PM 35.6 °F 26.6 °F 30.2 °F 81% 29.63 in 10.0 mi SSE 13.8 mph 23.0 mph 0.02 in   Overcast
11:35 PM 35.6 °F 26.2 °F 30.2 °F 81% 29.62 in 10.0 mi SSE 15.0 mph 26.5 mph 0.04 in   Overcast
11:55 PM 35.6 °F 26.6 °F 30.2 °F 81% 29.61 in 10.0 mi SSE 13.8 mph 23.0 mph 0.05 in   Overcast